[[{"header":{"parameterUnit":"m.s-1","parameterCategory":1,"la1":30.2991,"la2":30.254,"lo1":-89.0895,"lo2":-89.0444,"dy":0.0017,"dx":0.0017,"nx":28,"ny":28,"refTime":"2026-02-08T03:00:00:Z","depth":0,"parameterNumber":2,"parameterNumberName":"U-component_of_WINDS"},"data":[0,0,0,0,0,0,0,0,0,0,0,0,0,0,0,0,0,0,0,0,0,0,0,0,0,0,0,0,0,0,0,0,0,0,0,0,0,0,0,0,0,0,0,0,0,0,0,0,0,0,0,0,0,0,0,0,0,0,-3.1252,-3.1253,0,-3.1325,-3.1326,-3.1326,-3.1278,-3.1276,-3.1273,-3.1271,-3.1346,-3.135,-3.1354,0,0,0,0,0,0,0,0,0,0,0,0,0,-3.1074,-3.1077,-3.1252,-3.1253,-3.1254,-3.1325,-3.1326,-3.1327,-3.1278,-3.1275,-3.1273,-3.127,-3.1345,-3.135,-3.1354,0,0,0,0,0,0,0,0,0,0,0,0,0,-3.1149,-3.1078,-3.1252,-3.1238,-3.1238,-3.1324,-3.1326,-3.1327,-3.1279,-3.1275,-3.1272,-3.1269,-3.1343,-3.1349,-3.1355,-3.1459,0,0,-3.1374,-3.1376,0,0,0,0,0,0,0,0,-3.1145,-3.1156,-3.124,-3.124,-3.1239,-3.1289,-3.129,-3.1371,-3.128,-3.1263,-3.1271,-3.1267,-3.133,-3.1337,-3.1358,-3.1463,-3.1466,-3.1374,-3.1378,-3.1381,-3.1382,0,0,0,0,0,0,0,-3.114,-3.1152,-3.1281,-3.1241,-3.1241,-3.1229,-3.1236,-3.1305,-3.1314,-3.1264,-3.1261,-3.127,-3.1329,-3.1352,-3.1359,-3.1467,-3.1374,-3.138,-3.1383,-3.1386,-3.1663,-3.1667,0,0,0,0,0,0,-3.1136,-3.1148,-3.1279,-3.1283,-3.1183,-3.1235,-3.1243,-3.1276,-3.1313,-3.1316,-3.1273,-3.1268,-3.1343,-3.1352,-3.1362,-3.1487,-3.1381,-3.1386,-3.139,-3.1659,-3.1664,-3.1668,0,0,0,0,0,0,-3.1132,-3.1148,-3.1276,-3.1215,-3.123,-3.1242,-3.1279,-3.1279,-3.1302,-3.132,-3.1321,-3.1295,-3.1341,-3.1353,-3.1436,-3.1489,-3.1389,-3.1395,-3.1655,-3.1661,-3.1666,-3.1738,0,0,0,0,0,0,-3.1127,-3.1147,-3.1186,-3.1216,-3.1234,-3.1348,-3.1283,-3.1283,-3.1313,-3.1307,-3.1341,-3.1343,-3.1339,-3.1427,-3.1442,-3.1495,-3.1399,-3.165,-3.1657,-3.1664,-3.1731,-3.1746,-3.1758,0,0,0,0,0,-3.1121,-3.1203,-3.1188,-3.1204,-3.1283,-3.1352,-3.1362,-3.1355,-3.1317,-3.1357,-3.1369,-3.1342,-3.1481,-3.1436,-3.1452,-3.1508,-3.1647,-3.1655,-3.1664,-3.1725,-3.1743,-3.1758,0,0,0,0,0,0,-3.1179,-3.1207,-3.119,-3.1285,-3.1316,-3.1343,-3.1393,-3.1374,-3.1417,-3.1409,-3.14,-3.1408,-3.1495,-3.151,-3.1459,-3.1612,-3.1558,-3.157,-3.1599,-3.1616,-3.1629,-3.1624,-3.1404,0,0,0,0,0,-3.1203,-3.1255,-3.1277,-3.1359,-3.1375,-3.1382,-3.1411,-3.1404,-3.1436,-3.1449,-3.1466,-3.1499,-3.155,-3.1584,-3.1631,-3.1733,-3.174,-3.178,-3.1793,-3.1804,-3.1815,-3.1871,-3.1889,-3.1695,-3.1695,-3.1695,0,0,-3.1252,-3.1274,-3.1308,-3.1371,-3.1394,-3.145,-3.1393,-3.1454,-3.1496,-3.1458,-3.1538,-3.1552,-3.1588,-3.1681,-3.1722,-3.1696,-3.187,-3.1815,-3.1823,-3.1828,-3.1882,-3.19,-3.1916,-3.1701,-3.17,-3.1699,0,0,-3.1371,-3.1393,-3.1464,-3.1488,-3.1525,-3.1529,-3.1546,-3.1576,-3.1584,-3.1664,-3.1637,-3.1687,-3.1774,-3.1801,-3.1826,-3.1957,-3.1935,-3.1973,-3.2043,-3.2098,-3.2114,-3.2127,-3.2175,-3.2192,-3.1984,-3.1984,-3.1984,0,-3.1428,-3.1511,-3.1502,-3.1566,-3.1595,-3.1564,-3.1636,-3.1661,-3.1711,-3.1732,-3.1701,-3.1811,-3.1833,-3.1933,-3.1965,-3.1986,-3.2006,-3.1969,-3.2112,-3.2126,-3.2138,-3.2184,-3.2201,-3.1988,-3.1988,-3.1987,-3.1987,0,-3.158,-3.1638,-3.1691,-3.174,-3.1775,-3.1843,-3.1845,-3.1882,-3.1872,-3.1879,-3.1961,-3.1986,-3.2039,-3.2062,-3.2053,-3.2161,-3.2144,-3.2113,-3.2058,-3.2161,-3.2204,-3.2221,-3.1995,-3.1993,-3.1992,-3.1991,0,0,-3.1737,-3.1782,-3.1802,-3.1824,-3.1863,-3.1907,-3.1974,-3.2026,-3.2058,-3.2094,-3.215,-3.2226,-3.2198,-3.2227,-3.222,-3.2268,-3.2372,-3.2231,-3.2232,-3.2258,-3.2494,-3.2518,-3.2538,-3.2357,-3.236,-3.2363,-3.2492,0,-3.1859,-3.1975,-3.197,-3.2079,-3.2133,-3.2105,-3.2163,-3.2193,-3.2203,-3.225,-3.226,-3.2314,-3.2273,-3.229,-3.2337,-3.2349,-3.2419,-3.234,-3.241,-3.2413,-3.2403,-3.256,-3.2585,-3.2705,-3.2508,-3.2511,-3.2513,0,-3.2017,-3.2058,-3.2173,-3.2204,-3.2227,-3.2279,-3.2327,-3.2373,-3.2407,-3.241,-3.2443,-3.2429,-3.2498,-3.2441,-3.2536,-3.2482,-3.2511,-3.2522,-3.2526,-3.2533,-3.2469,-3.2572,-3.2743,-3.2761,-3.2539,-3.2537,-3.2535,0,-3.2121,-3.2206,-3.2285,-3.2306,-3.2344,-3.2382,-3.24,-3.2431,-3.2463,-3.2505,-3.2526,-3.2575,-3.2603,-3.2642,-3.2642,-3.26,-3.2738,-3.2681,-3.2744,-3.2744,-3.2774,-3.2772,-3.2953,-3.2792,-3.2791,-3.2791,-3.2791,0,-3.2258,-3.2329,-3.2333,-3.2382,-3.2462,-3.2456,-3.2535,-3.2549,-3.2577,-3.2629,-3.2607,-3.2657,-3.2654,-3.2704,-3.2704,-3.2784,-3.2796,-3.2801,-3.2801,-3.2804,-3.2803,-3.2822,-3.2814,-3.2796,-3.2795,-3.2794,-3.2793,0,-3.2388,-3.2393,-3.2478,-3.2508,-3.2518,-3.2575,-3.2601,-3.2648,-3.2655,-3.2722,-3.2737,-3.2749,-3.2807,-3.2811,-3.2878,-3.2879,-3.2975,-3.2965,-3.2964,-3.2962,-3.3025,-3.3019,-3.3225,-3.3252,-3.3072,-3.3074,-3.3075,0,-3.2475,-3.2529,-3.2565,-3.2599,-3.2619,-3.2673,-3.2706,-3.2702,-3.2737,-3.2781,-3.2824,-3.288,-3.2924,-3.3019,-3.3034,-3.3086,-3.3077,-3.3146,-3.3085,-3.3086,-3.3079,-3.3076,-3.3082,-3.3158,-3.316,-3.3161,-3.3163,0,-3.263,-3.263,-3.2678,-3.2728,-3.2767,-3.2806,-3.2842,-3.2871,-3.2872,-3.2913,-3.2972,-3.3007,-3.3076,-3.3132,-3.3183,-3.3202,-3.3184,-3.3182,-3.3199,-3.3203,-3.32,-3.3203,-3.2997,-3.3177,-3.3176,-3.3174,-3.3174,-3.3173,-3.2741,-3.2789,-3.2822,-3.2877,-3.2904,-3.2938,-3.2985,-3.2998,-3.3048,-3.3104,-3.3099,-3.3165,-3.3199,-3.3265,-3.3289,-3.3341,-3.3317,-3.3342,-3.3349,-3.3355,-3.3362,-3.3192,-3.335,-3.3349,-3.3349,-3.3349,-3.3348,0,-3.2896,-3.2916,-3.2966,-3.3018,-3.3061,-3.304,-3.3079,-3.3117,-3.3175,-3.3209,-3.3253,-3.3322,-3.3377,-3.3398,-3.3451,-3.3489,-3.3482,-3.3504,-3.3501,-3.3506,-3.3379,-3.3359,-3.3509,-3.3509,-3.3509,-3.3509,-3.3509,-3.3509,-3.2981,-3.3061,-3.3065,-3.3159,-3.3178,-3.3243,-3.3267,-3.33,-3.3327,-3.3405,-3.345,-3.3463,-3.3492,-3.3548,-3.3598,-3.3602,-3.3623,-3.3649,-3.365,-3.3531,-3.3515,-3.3499,-3.3481,-3.3653,-3.3653,-3.3772,-3.3773,-3.3774]},{"header":{"parameterUnit":"m.s-1","parameterCategory":1,"la1":30.2991,"la2":30.254,"lo1":-89.0895,"lo2":-89.0444,"dy":0.0017,"dx":0.0017,"nx":28,"ny":28,"refTime":"2026-02-08T03:00:00:Z","depth":0,"parameterNumber":3,"parameterNumberName":"V-component_of_WINDS"},"data":[0,0,0,0,0,0,0,0,0,0,0,0,0,0,0,0,0,0,0,0,0,0,0,0,0,0,0,0,0,0,0,0,0,0,0,0,0,0,0,0,0,0,0,0,0,0,0,0,0,0,0,0,0,0,0,0,0,0,1.0563,1.0563,0,1.0582,1.0582,1.0583,1.0583,1.0583,1.0583,1.0583,1.06,1.0601,1.0602,0,0,0,0,0,0,0,0,0,0,0,0,0,1.0527,1.0527,1.0563,1.0563,1.0563,1.0582,1.0582,1.0583,1.0583,1.0583,1.0583,1.0583,1.06,1.0601,1.0602,0,0,0,0,0,0,0,0,0,0,0,0,0,1.0544,1.0527,1.0563,1.0566,1.0567,1.0582,1.0582,1.0583,1.0583,1.0583,1.0583,1.0582,1.06,1.0601,1.0602,1.0615,0,0,1.0605,1.0606,0,0,0,0,0,0,0,0,1.0543,1.0545,1.0565,1.0566,1.0566,1.058,1.0576,1.0594,1.0583,1.0577,1.0583,1.0582,1.0594,1.0595,1.06,1.0616,1.0617,1.0605,1.0606,1.0606,1.0607,0,0,0,0,0,0,0,1.0542,1.0544,1.0571,1.0566,1.0566,1.0566,1.0569,1.0579,1.0587,1.0577,1.0578,1.058,1.0594,1.0599,1.06,1.0617,1.0605,1.0606,1.0607,1.0607,1.0647,1.0647,0,0,0,0,0,0,1.054,1.0543,1.057,1.0571,1.0554,1.0567,1.057,1.0576,1.0587,1.0588,1.058,1.058,1.0597,1.0599,1.0601,1.0618,1.0606,1.0607,1.0608,1.0647,1.0647,1.0648,0,0,0,0,0,0,1.0539,1.0542,1.0569,1.0557,1.0561,1.0568,1.0575,1.0577,1.0581,1.0589,1.059,1.0584,1.0597,1.0599,1.0612,1.0619,1.0608,1.0609,1.0646,1.0647,1.0647,1.0652,0,0,0,0,0,0,1.0538,1.0542,1.0547,1.0557,1.0561,1.058,1.0576,1.0577,1.0583,1.0583,1.0592,1.0594,1.0597,1.0611,1.0613,1.062,1.0609,1.0645,1.0646,1.0647,1.0651,1.0653,1.0654,0,0,0,0,0,1.0537,1.0547,1.0547,1.055,1.0568,1.0581,1.0583,1.0587,1.0584,1.0589,1.0594,1.0593,1.0618,1.0612,1.0615,1.0622,1.0645,1.0646,1.0647,1.0651,1.0653,1.0654,0,0,0,0,0,0,1.0536,1.0548,1.0549,1.0562,1.0571,1.0581,1.0587,1.0588,1.0597,1.0596,1.06,1.0602,1.0616,1.062,1.0613,1.0636,1.0631,1.0633,1.0633,1.0635,1.0636,1.0635,1.061,0,0,0,0,0,1.0537,1.0547,1.0557,1.0568,1.0572,1.0579,1.0585,1.0588,1.0596,1.0599,1.0605,1.0613,1.0623,1.0629,1.0638,1.0652,1.0655,1.0659,1.066,1.0661,1.0662,1.0672,1.0674,1.0651,1.0651,1.0651,0,0,1.054,1.0548,1.0554,1.0568,1.0575,1.0585,1.0582,1.0592,1.06,1.06,1.0614,1.0619,1.0628,1.0642,1.0648,1.0646,1.067,1.0662,1.0663,1.0664,1.0673,1.0675,1.0677,1.0651,1.0651,1.0651,0,0,1.0551,1.0557,1.0568,1.0575,1.0586,1.0591,1.0594,1.0604,1.0608,1.0621,1.0622,1.0632,1.0647,1.0655,1.066,1.0676,1.0676,1.0679,1.0686,1.0695,1.0697,1.0698,1.0705,1.0707,1.068,1.068,1.068,0,1.0552,1.0568,1.0573,1.0585,1.0591,1.0594,1.0605,1.0612,1.0624,1.0629,1.0626,1.0648,1.0654,1.0671,1.0675,1.0679,1.0683,1.0677,1.0696,1.0698,1.07,1.0706,1.0708,1.068,1.068,1.068,1.068,0,1.0571,1.0582,1.0589,1.0603,1.0611,1.0622,1.0629,1.0636,1.0639,1.0644,1.0658,1.0666,1.0678,1.0682,1.0683,1.0699,1.0697,1.0695,1.069,1.0702,1.0708,1.0711,1.0681,1.0681,1.0681,1.068,0,0,1.058,1.0598,1.0601,1.0608,1.0621,1.063,1.0641,1.0654,1.0661,1.067,1.068,1.0695,1.0694,1.07,1.0703,1.0711,1.0724,1.0708,1.0708,1.0712,1.0744,1.0746,1.0748,1.0725,1.0725,1.0725,1.0743,0,1.0592,1.0614,1.062,1.0638,1.065,1.0653,1.0663,1.0673,1.0678,1.0688,1.0694,1.0705,1.0702,1.0707,1.0715,1.0721,1.0731,1.072,1.0735,1.0735,1.0733,1.0752,1.0753,1.077,1.0746,1.0746,1.0746,0,1.061,1.0621,1.0641,1.0655,1.066,1.0669,1.0682,1.0691,1.0702,1.0706,1.0714,1.0717,1.073,1.0724,1.0743,1.0735,1.0741,1.0746,1.0746,1.0748,1.0742,1.0755,1.0775,1.0778,1.075,1.075,1.0749,0,1.0616,1.0636,1.0651,1.0657,1.0673,1.0679,1.0686,1.0697,1.0705,1.0716,1.0721,1.0733,1.074,1.075,1.0755,1.0751,1.0774,1.0768,1.0778,1.0778,1.0782,1.0782,1.0805,1.0785,1.0785,1.0785,1.0785,0,1.0629,1.0641,1.0654,1.0663,1.0678,1.0685,1.0699,1.0706,1.0716,1.0727,1.073,1.074,1.0747,1.0758,1.0763,1.0778,1.078,1.0784,1.0785,1.0784,1.0784,1.0789,1.0788,1.0786,1.0786,1.0786,1.0786,0,1.0638,1.0647,1.0664,1.0678,1.0682,1.0692,1.0705,1.0714,1.0721,1.0735,1.0738,1.0748,1.0762,1.0769,1.0785,1.0789,1.0806,1.0806,1.0803,1.0804,1.0813,1.0812,1.084,1.0845,1.0822,1.0822,1.0822,0,1.0646,1.0656,1.0673,1.0681,1.0688,1.0701,1.071,1.0717,1.0726,1.0741,1.0749,1.0763,1.0775,1.0796,1.0805,1.0818,1.0819,1.0828,1.0821,1.082,1.082,1.082,1.0821,1.0829,1.0829,1.0829,1.0829,0,1.066,1.0665,1.0677,1.0693,1.0703,1.0715,1.0726,1.0733,1.0743,1.0752,1.0767,1.0776,1.0795,1.0809,1.0823,1.083,1.0832,1.0832,1.0835,1.0834,1.0832,1.0835,1.0807,1.0831,1.0831,1.0831,1.0831,1.0831,1.067,1.0679,1.0693,1.0708,1.0718,1.0729,1.074,1.0748,1.0761,1.0777,1.0781,1.0797,1.0809,1.0829,1.0837,1.0849,1.0847,1.0851,1.0853,1.0854,1.0855,1.083,1.0852,1.0852,1.0852,1.0852,1.0852,0,1.0685,1.0695,1.0708,1.0725,1.0737,1.0739,1.0753,1.0762,1.0777,1.0789,1.0801,1.0819,1.0833,1.0844,1.0859,1.0867,1.0868,1.0871,1.087,1.0872,1.0855,1.0851,1.0869,1.0869,1.0869,1.0869,1.0869,1.0869,1.0694,1.0711,1.0718,1.0741,1.075,1.0767,1.0775,1.0786,1.0796,1.0816,1.0828,1.0836,1.0848,1.0864,1.0877,1.088,1.0886,1.0888,1.0891,1.0875,1.0873,1.0871,1.0868,1.0889,1.0889,1.0908,1.0908,1.0908]}]]